This demonstration page uses our WeatherBlox Daily Observations layout. Learn more.

39.92423, -83.80882

Hourly Observations for September 2, 2018

Temp ( °F °C ) Dew Point ( °F °C ) Humidity (%) Winds ( mph kmh ) Pressure ( in mb ) Visibility ( mi km ) Precip ( " mm )
12:56 am 00:56 Clear 69 20.6 69 20.6 100 100 SSE 7 11 30.14 1021 10 16.0934 0 0
1:56 am 01:56 Clear 70 21.1 70 21.1 100 100 S 5 7 30.15 1021 10 16.0934 0 0
2:56 am 02:56 Clear 70 21.1 70 21.1 100 100 S 5 7 30.16 1021 10 16.0934 0 0
3:56 am 03:56 Clear 70 21.1 70 21.1 100 100 S 8 13 30.16 1021 10 16.0934 0 0
4:56 am 04:56 Clear 70 21.1 70 21.1 100 100 SSW 3 6 30.17 1022 10 16.0934 0 0
5:56 am 05:56 Clear 69 20.6 69 20.6 100 100 SSW 3 6 30.19 1023 9 14.48406 0 0
6:56 am 06:56 Mostly Clear 69 20.6 69 20.6 100 100 SSW 6 9 30.2 1023 10 16.0934 0 0
7:56 am 07:56 Sunny 71 21.7 71 21.7 100 100 S 5 7 30.21 1023 10 16.0934 0 0
8:56 am 08:56 Sunny 74 23.3 72 22.2 94 94 SW 7 11 30.23 1024 10 16.0934 0 0
9:56 am 09:56 Partly Cloudy 77 25 72 22.2 85 85 SW 6 9 30.23 1024 10 16.0934 0 0
10:56 am 10:56 Cloudy 79 26.1 72 22.2 79 79 SW 6 9 30.23 1024 10 16.0934 0 0
11:56 am 11:56 Sunny 81 27.2 73 22.8 77 77 VRB 3 6 30.22 1023 10 16.0934 0 0
1:56 pm 13:56 Sunny 87 30.6 74 23.3 65 65 VRB 7 11 30.18 1022 10 16.0934 0 0
2:56 pm 14:56 Sunny 87 30.6 72 22.2 61 61 SW 10 17 30.17 1022 10 16.0934 0 0
3:56 pm 15:56 Mostly Sunny 87 30.6 72 22.2 61 61 S 7 11 30.15 1021 10 16.0934 0 0
4:56 pm 16:56 Mostly Cloudy 87 30.6 72 22.2 61 61 SSW 8 13 30.15 1021 10 16.0934 0 0
5:56 pm 17:56 Sunny 87 30.6 72 22.2 61 61 S 5 7 30.15 1021 10 16.0934 0 0
6:56 pm 18:56 Sunny 85 29.4 71 21.7 63 63 S 6 9 30.15 1021 10 16.0934 0 0
7:56 pm 19:56 Sunny 81 27.2 72 22.2 74 74 S 5 7 30.14 1021 10 16.0934 0 0
8:56 pm 20:56 Clear 78 25.6 72 22.2 82 82 S 6 9 30.16 1021 10 16.0934 0 0
9:56 pm 21:56 Clear 77 25 72 22.2 85 85 S 5 7 30.18 1022 10 16.0934 0 0
10:56 pm 22:56 Clear 76 24.4 73 22.8 91 91 S 6 9 30.19 1023 10 16.0934 0 0
11:56 pm 23:56 Clear 75 23.9 73 22.8 94 94 S 5 7 30.21 1023 10 16.0934 0 0

Powered by AerisWeather